Date String (YYYY-MM-DD hh:mm:ss) UTC,Instrument flags,Ambient pressure (hPa),Sample flow (lpm),Bypass flow (lpm),Sample temperature (°C),Ambient temperature (°C),ASC tube jacket temperature (°C),LED temperature (°C),Box temperature (°C),Sample RH (%),Span deviation,Mass concentration (μg/m³),Mass concentration (μg/m³),Mass concentration (μg/m³)
DateTimeUTC,F1_M11,P_M11,Q1_M11,Q2_M11,T1_M11,T2_M11,T3_M11,T4_M11,T5_M11,U1_M11,ZSPAN_M11,X0_M11,X2_M11,X1_M11
2022-10-17 06:00:00,,0834.4,5.01,0.00,28.1,26.3,00.0,37.0,29.8,12.1,0000.0,0011.59,0005.27,0004.61
2022-10-17 06:01:00,,0834.4,4.99,0.00,28.1,26.3,00.0,37.0,29.8,12.1,0000.0,0011.94,0005.23,0004.59
2022-10-17 06:02:00,,0834.4,5.01,0.00,28.1,26.3,00.0,37.0,29.8,12.1,0000.0,0012.10,0005.20,0004.56
2022-10-17 06:03:00,,0834.4,4.99,0.00,28.0,26.3,00.0,36.9,29.8,12.1,0000.0,0012.10,0005.21,0004.55
2022-10-17 06:04:00,,0834.4,4.99,0.00,28.0,26.3,00.0,36.9,29.7,12.1,0000.0,0011.98,0005.19,0004.53
2022-10-17 06:05:00,,0834.4,5.01,0.00,28.0,26.2,00.0,36.9,29.7,12.2,0000.0,0011.84,0005.19,0004.53
2022-10-17 06:06:00,,0834.5,5.00,0.00,28.0,26.2,00.0,36.9,29.7,12.2,0000.0,0011.60,0005.17,0004.52
2022-10-17 06:07:00,,0834.4,5.01,0.00,28.0,26.2,00.0,36.9,29.7,12.2,0000.0,0011.50,0005.16,0004.54
2022-10-17 06:08:00,,0834.4,4.99,0.00,28.0,26.2,00.0,36.9,29.7,12.2,0000.0,0010.62,0005.18,0004.54
2022-10-17 06:09:00,,0834.4,5.02,0.00,28.0,26.2,00.0,36.9,29.7,12.1,0000.0,0010.71,0005.23,0004.55
2022-10-17 06:10:00,,0834.4,4.98,0.00,28.0,26.2,00.0,36.9,29.7,12.1,0000.0,0010.38,0005.24,0004.55
2022-10-17 06:11:00,,0834.4,5.02,0.00,27.9,26.2,00.0,36.9,29.7,12.2,0000.0,0009.72,0005.22,0004.55
2022-10-17 06:12:00,,0834.4,4.98,0.00,27.9,26.2,00.0,36.9,29.7,12.2,0000.0,0009.39,0005.23,0004.55
2022-10-17 06:13:00,,0834.4,5.01,0.00,27.9,26.2,00.0,36.8,29.7,12.1,0000.0,0008.99,0005.21,0004.55
2022-10-17 06:14:00,,0834.4,4.99,0.00,27.9,26.2,00.0,36.8,29.7,12.2,0000.0,0008.85,0005.15,0004.54
2022-10-17 06:15:00,,0834.4,5.01,0.00,27.9,26.1,00.0,36.8,29.6,12.5,0000.0,0009.11,0005.17,0004.55
2022-10-17 06:16:00,,0834.4,4.98,0.00,27.9,26.1,00.0,36.8,29.6,12.6,0000.0,0009.88,0005.18,0004.58
2022-10-17 06:17:00,,0834.4,5.01,0.00,27.8,26.1,00.0,36.8,29.6,12.6,0000.0,0010.26,0005.21,0004.62
2022-10-17 06:18:00,,0834.3,4.99,0.00,27.8,26.1,00.0,36.8,29.6,12.7,0000.0,0010.19,0005.20,0004.64
2022-10-17 06:19:00,,0834.4,5.01,0.00,27.8,26.0,00.0,36.8,29.5,12.6,0000.0,0010.19,0005.21,0004.66
2022-10-17 06:20:00,,0834.3,5.00,0.00,27.8,26.0,00.0,36.8,29.5,12.5,0000.0,0010.06,0005.17,0004.66
2022-10-17 06:21:00,,0834.3,5.00,0.00,27.8,26.0,00.0,36.8,29.5,12.6,0000.0,0009.83,0005.14,0004.68
2022-10-17 06:22:00,,0834.3,5.01,0.00,27.8,26.0,00.0,36.8,29.5,12.6,0000.0,0009.78,0005.18,0004.71
2022-10-17 06:23:00,,0834.3,4.99,0.00,27.8,26.0,00.0,36.7,29.5,12.8,0000.0,0010.11,0005.25,0004.74
2022-10-17 06:24:00,,0834.3,5.02,0.00,27.8,26.0,00.0,36.7,29.5,12.9,0000.0,0010.29,0005.29,0004.77
2022-10-17 06:25:00,,0834.3,4.98,0.00,27.7,26.0,00.0,36.7,29.4,12.8,0000.0,0010.23,0005.30,0004.80
2022-10-17 06:26:00,,0834.3,5.01,0.00,27.7,26.0,00.0,36.7,29.4,12.9,0000.0,0010.08,0005.30,0004.82
2022-10-17 06:27:00,,0834.3,4.99,0.00,27.7,26.0,00.0,36.7,29.4,12.9,0000.0,0009.29,0005.33,0004.84
2022-10-17 06:28:00,,0834.3,5.01,0.00,27.7,26.0,00.0,36.7,29.4,12.9,0000.0,0008.81,0005.30,0004.85
2022-10-17 06:29:00,,0834.3,4.98,0.00,27.7,26.0,00.0,36.7,29.4,12.9,0000.0,0008.79,0005.28,0004.84
2022-10-17 06:30:00,,0834.3,5.01,0.00,27.7,25.9,00.0,36.7,29.4,12.8,0000.0,0008.77,0005.28,0004.85
2022-10-17 06:31:00,,0834.3,4.99,0.00,27.7,25.9,00.0,36.6,29.4,12.8,0000.0,0008.79,0005.30,0004.86
2022-10-17 06:32:00,,0834.2,5.02,0.00,27.7,25.9,00.0,36.6,29.4,12.8,0000.2,0009.22,0005.31,0004.88
2022-10-17 06:33:00,,0834.3,4.99,0.00,27.7,25.9,00.0,36.6,29.4,12.8,0000.2,0010.04,0005.31,0004.89
2022-10-17 06:34:00,,0834.3,5.01,0.00,27.6,25.9,00.0,36.6,29.3,12.8,0000.3,0009.80,0005.29,0004.91
2022-10-17 06:35:00,,0834.3,4.99,0.00,27.6,25.9,00.0,36.6,29.3,12.8,0000.0,0009.19,0005.24,0004.90
2022-10-17 06:36:00,,0834.3,5.02,0.00,27.6,25.9,00.0,36.6,29.4,12.8,0000.0,0009.24,0005.25,0004.90
2022-10-17 06:37:00,,0834.3,4.99,0.00,27.6,25.9,00.0,36.6,29.3,12.8,0000.0,0009.46,0005.27,0004.90
2022-10-17 06:38:00,,0834.3,5.00,0.00,27.6,25.9,00.0,36.6,29.3,12.9,0000.0,0009.62,0005.28,0004.89
2022-10-17 06:39:00,,0834.3,4.99,0.00,27.6,25.9,00.0,36.5,29.4,12.8,0000.0,0009.65,0005.29,0004.88
2022-10-17 06:40:00,,0834.3,5.01,0.00,27.6,25.9,00.0,36.5,29.3,12.8,0000.0,0009.72,0005.31,0004.88
2022-10-17 06:41:00,,0834.3,4.99,0.00,27.6,25.8,00.0,36.5,29.3,12.8,0000.0,0010.23,0005.31,0004.88
2022-10-17 06:42:00,,0834.3,5.00,0.00,27.6,25.8,00.0,36.5,29.3,12.9,0000.0,0010.44,0005.32,0004.88
2022-10-17 06:43:00,,0834.3,5.00,0.00,27.6,25.8,00.0,36.5,29.4,12.9,0000.0,0010.10,0005.30,0004.89
2022-10-17 06:44:00,,0834.3,5.00,0.00,27.6,25.8,00.0,36.5,29.3,12.8,0000.0,0009.22,0005.29,0004.89
2022-10-17 06:45:00,,0834.3,5.00,0.00,27.5,25.8,00.0,36.5,29.3,12.8,0000.0,0009.15,0005.25,0004.87
2022-10-17 06:46:00,,0834.3,5.00,0.00,27.5,25.8,00.0,36.5,29.3,12.7,0000.0,0009.28,0005.26,0004.86
2022-10-17 06:47:00,,0834.3,5.00,0.00,27.5,25.8,00.0,36.5,29.3,12.7,0000.0,0009.32,0005.25,0004.85
2022-10-17 06:48:00,,0834.2,5.00,0.00,27.5,25.8,00.0,36.5,29.3,12.6,0000.0,0009.62,0005.25,0004.84
2022-10-17 06:49:00,,0834.2,5.00,0.00,27.5,25.8,00.0,36.5,29.3,12.5,0000.0,0009.58,0005.23,0004.81
2022-10-17 06:50:00,,0834.1,5.00,0.00,27.5,25.8,00.0,36.4,29.3,12.3,0000.0,0010.33,0005.19,0004.78
2022-10-17 06:51:00,,0834.1,5.01,0.00,27.5,25.8,00.0,36.4,29.3,12.4,0000.0,0010.46,0005.18,0004.74
2022-10-17 06:52:00,,0834.1,4.99,0.00,27.5,25.8,00.0,36.4,29.2,12.4,0000.0,0010.16,0005.17,0004.71
2022-10-17 06:53:00,,0834.1,5.01,0.00,27.5,25.7,00.0,36.4,29.2,12.5,0000.0,0010.03,0005.13,0004.68
2022-10-17 06:54:00,,0834.0,4.98,0.00,27.5,25.7,00.0,36.4,29.2,12.6,0000.0,0010.03,0005.12,0004.65
2022-10-17 06:55:00,,0834.1,5.02,0.00,27.4,25.7,00.0,36.4,29.2,12.6,0000.0,0010.14,0005.13,0004.63
2022-10-17 06:56:00,,0834.1,4.99,0.00,27.4,25.7,00.0,36.4,29.2,12.5,0000.0,0010.12,0005.12,0004.60
2022-10-17 06:57:00,,0834.1,5.01,0.00,27.4,25.7,00.0,36.4,29.2,12.6,0000.0,0010.44,0005.11,0004.58
2022-10-17 06:58:00,,0834.1,4.99,0.00,27.4,25.7,00.0,36.4,29.2,12.6,0000.0,0010.47,0005.11,0004.57
2022-10-17 06:59:00,,0834.1,5.02,0.00,27.4,25.7,00.0,36.4,29.1,12.7,0000.0,0010.15,0005.09,0004.55
